Weather History for KLKV - December, 2013

Change the Weather History Date:

Sunday, December 8, 2013

  Actual Average Record
Temperature  
Mean Temperature -11 °F -  
Max Temperature 3 °F 39 °F 59 °F (1975)
Min Temperature -25 °F 20 °F -25 °F (2013)
Degree Days  
Heating Degree Days 76    
Moisture  
Dew Point -19 °F    
Average Humidity 60    
Maximum Humidity 100    
Minimum Humidity 34    
Precipitation  
Precipitation 0.00 in - - ()
Sea Level Pressure  
Sea Level Pressure 30.21 in    
Wind  
Wind Speed 5 mph (North)    
Max Wind Speed 10 mph    
Max Gust Speed -    
Visibility 10 miles    
Events      
Averages and records for this station are not official NWS values.
T = Trace of Precipitation, MM = Missing Value Source: NWS Daily Summary

Daily Weather History Graph

Daily Weather History Graph

Search for Another Location

Airport or City:

Trip Planner

Search our weather history database for the weather conditions in past years. The results will help you decide how hot, cold, wet, or windy it might be!

Date:

Astronomy

Dec. 08, 2013 Rise Set
Actual Time 7:17 AM PST 4:29 PM PST
Civil Twilight 6:46 AM PST 5:01 PM PST
Nautical Twilight 6:11 AM PST 5:36 PM PST
Astronomical Twilight 5:37 AM PST 6:10 PM PST
Moon 11:35 AM PST (12/8) 11:30 PM PST (12/8)
Length of Visible Light 10h 14m
Length of Day
9h 11m
Waxing Crescent, 41% of the Moon is Illuminated
Dec 8
Waxing Crescent
Dec 9
First Quarter
Dec 17
Full
Dec 25
Last Quarter
Jan 1
New

Hourly Weather History & Observations

Time (PST) Temp. Windchill Dew Point Humidity Pressure Visibility Wind Dir Wind Speed Gust Speed Precip Events Conditions
12:15 AM -20.2 °F -38.8 °F -25.6 °F 76% 30.14 in 10.0 mi ESE 8.1 mph - N/A   Clear
12:35 AM -18.4 °F -37.9 °F -18.4 °F 100% 30.12 in 10.0 mi East 9.2 mph - N/A   Clear
12:55 AM -20.2 °F -37.3 °F - N/A% 30.11 in 10.0 mi WNW 6.9 mph - N/A   Clear
1:15 AM -20.2 °F -41.3 °F - N/A% 30.11 in 10.0 mi NNW 10.4 mph - N/A   Clear
1:35 AM -16.6 °F -35.7 °F - N/A% 30.11 in 10.0 mi NW 9.2 mph - N/A   Clear
1:55 AM -16.6 °F -32.9 °F - N/A% 30.11 in 10.0 mi WNW 6.9 mph - N/A   Clear
2:15 AM -18.4 °F -35.1 °F - N/A% 30.11 in 10.0 mi NW 6.9 mph - N/A   Clear
2:35 AM -20.2 °F -33.5 °F - N/A% 30.12 in 10.0 mi North 4.6 mph - N/A   Clear
2:55 AM -18.4 °F -31.4 °F -23.8 °F 76% 30.11 in 10.0 mi North 4.6 mph - N/A   Clear
3:15 AM -22.0 °F -35.6 °F - N/A% 30.12 in 10.0 mi SSW 4.6 mph - N/A   Clear
3:35 AM -23.8 °F -37.7 °F - N/A% 30.13 in 10.0 mi ESE 4.6 mph - N/A   Clear
3:55 AM -23.8 °F - - N/A% 30.13 in 10.0 mi Calm Calm - N/A   Clear
4:15 AM -23.8 °F -37.7 °F - N/A% 30.14 in 10.0 mi SW 4.6 mph - N/A   Clear
4:35 AM -22.0 °F - - N/A% 30.14 in 10.0 mi Calm Calm - N/A   Clear
4:55 AM -25.6 °F -39.8 °F - N/A% 30.14 in 10.0 mi NE 4.6 mph - N/A   Clear
5:15 AM -23.8 °F -35.0 °F -27.4 °F 83% 30.15 in 10.0 mi NNE 3.5 mph - N/A   Clear
5:35 AM -25.6 °F -45.4 °F - N/A% 30.16 in 10.0 mi NNW 8.1 mph - N/A   Clear
5:55 AM -25.6 °F -37.1 °F - N/A% 30.16 in 10.0 mi NW 3.5 mph - N/A   Clear
6:15 AM -25.6 °F -37.1 °F - N/A% 30.17 in 10.0 mi NW 3.5 mph - N/A   Clear
6:35 AM -25.6 °F -43.8 °F - N/A% 30.17 in 10.0 mi NNW 6.9 mph - N/A   Clear
6:55 AM -25.6 °F -45.4 °F - N/A% 30.18 in 10.0 mi NNW 8.1 mph - N/A   Clear
7:15 AM -25.6 °F -39.8 °F - N/A% 30.18 in 10.0 mi NNW 4.6 mph - N/A   Clear
7:35 AM -23.8 °F -39.8 °F - N/A% 30.18 in 10.0 mi NNW 5.8 mph - N/A   Clear
7:55 AM -23.8 °F -35.0 °F - N/A% 30.18 in 10.0 mi NNW 3.5 mph - N/A   Clear
8:15 AM -18.4 °F - -18.4 °F 100% 30.19 in 10.0 mi Calm Calm - N/A   Clear
8:35 AM -14.8 °F - - N/A% 30.20 in 10.0 mi Calm Calm - N/A   Clear
8:55 AM -9.4 °F - -9.4 °F 100% 30.21 in 10.0 mi Calm Calm - N/A   Clear
9:15 AM -11.2 °F - - N/A% 30.21 in 10.0 mi Calm Calm - N/A   Clear
9:35 AM -13.0 °F - - N/A% 30.22 in 10.0 mi Calm Calm - N/A   Clear
9:55 AM -11.2 °F -23.0 °F - N/A% 30.23 in 10.0 mi SE 4.6 mph - N/A   Clear
10:15 AM -11.2 °F -20.6 °F - N/A% 30.22 in 10.0 mi SE 3.5 mph - N/A   Clear
10:35 AM -7.6 °F - -29.2 °F 34% 30.22 in 10.0 mi Calm Calm - N/A   Clear
10:55 AM -0.4 °F - -22.0 °F 36% 30.22 in 10.0 mi Calm Calm - N/A   Clear
11:15 AM -2.2 °F -10.4 °F -23.8 °F 35% 30.21 in 10.0 mi South 3.5 mph - N/A   Clear
11:35 AM -0.4 °F -8.3 °F -18.4 °F 43% 30.21 in 10.0 mi SSW 3.5 mph - N/A   Clear
11:55 AM -2.2 °F -12.5 °F -16.6 °F 50% 30.21 in 10.0 mi ESE 4.6 mph - N/A   Clear
12:15 PM -2.2 °F - -18.4 °F 46% 30.21 in 10.0 mi Calm Calm - N/A   Clear
12:35 PM 3.2 °F - -13.0 °F 47% 30.21 in 10.0 mi Calm Calm - N/A   Clear
12:55 PM -0.4 °F - -16.6 °F 46% 30.20 in 10.0 mi Calm Calm - N/A   Clear
1:15 PM -0.4 °F - -16.6 °F 46% 30.20 in 10.0 mi Calm Calm - N/A   Clear
1:35 PM 1.4 °F -6.2 °F -13.0 °F 51% 30.20 in 10.0 mi ESE 3.5 mph - N/A   Scattered Clouds
1:55 PM 1.4 °F -6.2 °F -13.0 °F 51% 30.19 in 10.0 mi SE 3.5 mph - N/A   Overcast
2:15 PM 3.2 °F - -11.2 °F 51% 30.19 in 10.0 mi Calm Calm - N/A   Mostly Cloudy
2:35 PM 1.4 °F -6.2 °F -11.2 °F 56% 30.20 in 10.0 mi SE 3.5 mph - N/A   Partly Cloudy
2:55 PM 1.4 °F -8.3 °F -9.4 °F 61% 30.20 in 10.0 mi ESE 4.6 mph - N/A   Clear
3:15 PM 1.4 °F -8.3 °F -11.2 °F 56% 30.21 in 10.0 mi SE 4.6 mph - N/A   Clear
3:35 PM 1.4 °F - -11.2 °F 56% 30.22 in 10.0 mi Calm Calm - N/A   Clear
3:55 PM 1.4 °F -6.2 °F -11.2 °F 56% 30.22 in 10.0 mi South 3.5 mph - N/A   Mostly Cloudy
4:15 PM 1.4 °F - -11.2 °F 56% 30.22 in 10.0 mi Calm Calm - N/A   Mostly Cloudy
4:35 PM -0.4 °F - -14.8 °F 51% 30.22 in 10.0 mi Calm Calm - N/A   Scattered Clouds
4:55 PM -2.2 °F - -13.0 °F 60% 30.23 in 10.0 mi Calm Calm - N/A   Clear
5:15 PM -5.8 °F - -16.6 °F 60% 30.24 in 10.0 mi Calm Calm - N/A   Clear
5:35 PM -7.6 °F -18.8 °F -22.0 °F 50% 30.24 in 10.0 mi NE 4.6 mph - N/A   Clear
5:55 PM -9.4 °F - -20.2 °F 59% 30.24 in 10.0 mi Calm Calm - N/A   Clear
6:15 PM -9.4 °F -20.9 °F -14.8 °F 77% 30.25 in 10.0 mi North 4.6 mph - N/A   Clear
6:35 PM -11.2 °F -23.0 °F -18.4 °F 70% 30.25 in 10.0 mi North 4.6 mph - N/A   Clear
6:55 PM -13.0 °F -27.0 °F -29.2 °F 44% 30.25 in 10.0 mi NNW 5.8 mph - N/A   Clear
7:15 PM -16.6 °F -32.9 °F -25.6 °F 64% 30.26 in 10.0 mi NNW 6.9 mph - N/A   Clear
7:35 PM -13.0 °F -32.4 °F -16.6 °F 84% 30.26 in 10.0 mi NNW 10.4 mph - N/A   Clear
7:55 PM -11.2 °F -30.1 °F -20.2 °F 64% 30.27 in 10.0 mi NNW 10.4 mph - N/A   Clear
8:15 PM -11.2 °F -27.8 °F -29.2 °F 41% 30.28 in 10.0 mi NW 8.1 mph - N/A   Clear
8:35 PM -14.8 °F -32.2 °F -23.8 °F 64% 30.29 in 10.0 mi NNW 8.1 mph - N/A   Clear
8:55 PM -14.8 °F -29.1 °F -20.2 °F 77% 30.29 in 10.0 mi NW 5.8 mph - N/A   Clear
9:15 PM -14.8 °F - -27.4 °F 53% 30.29 in 10.0 mi Calm Calm - N/A   Clear
9:35 PM -14.8 °F -24.8 °F -27.4 °F 53% 30.30 in 10.0 mi NE 3.5 mph - N/A   Clear
9:55 PM -14.8 °F - -23.8 °F 64% 30.31 in 10.0 mi Calm Calm - N/A   Clear
10:15 PM -14.8 °F - - N/A% 30.31 in 10.0 mi Calm Calm - N/A   Clear
10:35 PM -13.0 °F - -13.0 °F 100% 30.33 in 10.0 mi Calm Calm - N/A   Clear
10:55 PM -11.2 °F - -23.8 °F 54% 30.33 in 10.0 mi Calm Calm - N/A   Clear
11:15 PM -14.8 °F - - N/A% 30.34 in 10.0 mi Calm Calm - N/A   Clear
11:35 PM -16.6 °F -26.8 °F - N/A% 30.34 in 10.0 mi SE 3.5 mph - N/A   Clear
11:55 PM -16.6 °F - - N/A% 30.34 in 10.0 mi Calm Calm - N/A   Clear